Iron Mountain, MI

9:03 AM CDT on May 24, 2017 (GMT -0500)
Ford

Weather History for KIMT - October, 2012

Change the Weather History Date:

Monday, October 29, 2012

  Actual Average Record
Temperature  
Mean Temperature 32 °F -  
Max Temperature 48 °F 49 °F 76 °F (1937)
Min Temperature 19 °F 29 °F 16 °F (1952)
Degree Days  
Heating Degree Days 32    
Moisture  
Dew Point 23 °F    
Average Humidity 69    
Maximum Humidity 92    
Minimum Humidity 41    
Precipitation  
Precipitation 0.00 in - - ()
Sea Level Pressure  
Sea Level Pressure 30.35 in    
Wind  
Wind Speed 3 mph (North)    
Max Wind Speed 12 mph    
Max Gust Speed 17 mph    
Visibility 10 miles    
Events      
Averages and records for this station are not official NWS values.
T = Trace of Precipitation, MM = Missing Value Source: NWS Daily Summary

Daily Weather History Graph

Daily Weather History Graph

Search for Another Location

Airport or City:

Trip Planner

Search our weather history database for the weather conditions in past years. The results will help you decide how hot, cold, wet, or windy it might be!

Date:

Astronomy

Oct. 29, 2012 Rise Set
Actual Time 7:29 AM CDT 5:42 PM CDT
Civil Twilight 6:58 AM CDT 6:13 PM CDT
Nautical Twilight 6:23 AM CDT 6:48 PM CDT
Astronomical Twilight 5:48 AM CDT 7:22 PM CDT
Moon 5:31 PM CDT (10/29) 7:20 AM CDT (10/29)
Length of Visible Light 11h 15m
Length of Day
10h 13m
Full, 100% of the Moon is Illuminated
Oct 29
Full
Oct 29
Full
Nov 6
Last Quarter
Nov 13
New
Nov 20
First Quarter

Hourly Weather History & Observations

Time (CDT) Temp. Windchill Dew Point Humidity Pressure Visibility Wind Dir Wind Speed Gust Speed Precip Events Conditions
12:54 AM 24.1 °F - 19.9 °F 84% 30.38 in 10.0 mi Calm Calm - N/A   Clear
1:54 AM 21.9 °F - 19.0 °F 89% 30.38 in 10.0 mi Calm Calm - N/A   Clear
2:54 AM 24.1 °F - 19.9 °F 84% 30.38 in 10.0 mi Calm Calm - N/A   Clear
3:54 AM 23.0 °F 18.4 °F 19.9 °F 88% 30.38 in 10.0 mi NW 3.5 mph - N/A   Clear
4:54 AM 21.0 °F - 19.0 °F 92% 30.39 in 10.0 mi Calm Calm - N/A   Clear
5:54 AM 19.9 °F - 16.0 °F 85% 30.40 in 10.0 mi Calm Calm - N/A   Clear
6:54 AM 21.0 °F - 18.0 °F 88% 30.41 in 10.0 mi Calm Calm - N/A   Clear
7:54 AM 19.9 °F - 18.0 °F 92% 30.42 in 10.0 mi Calm Calm - N/A   Clear
8:54 AM 28.0 °F - 24.1 °F 85% 30.41 in 10.0 mi Calm Calm - N/A   Clear
9:54 AM 33.1 °F 30.0 °F 27.0 °F 78% 30.40 in 10.0 mi NW 3.5 mph - N/A   Clear
10:54 AM 41.0 °F 38.0 °F 28.9 °F 62% 30.39 in 10.0 mi North 4.6 mph - N/A   Clear
11:54 AM 44.1 °F 39.0 °F 26.1 °F 49% 30.38 in 10.0 mi NE 9.2 mph - N/A   Clear
12:54 PM 46.0 °F 42.5 °F 25.0 °F 44% 30.35 in 10.0 mi North 6.9 mph 17.3 mph N/A   Clear
1:54 PM 46.9 °F - 24.1 °F 41% 30.34 in 10.0 mi North 9.2 mph - N/A   Clear
2:54 PM 46.0 °F 41.9 °F 25.0 °F 44% 30.32 in 10.0 mi NNE 8.1 mph - N/A   Partly Cloudy
3:54 PM 46.0 °F 41.4 °F 24.1 °F 42% 30.32 in 10.0 mi ENE 9.2 mph - N/A   Clear
4:54 PM 44.1 °F 38.6 °F 23.0 °F 43% 30.32 in 10.0 mi NE 10.4 mph - N/A   Clear
5:54 PM 41.0 °F 37.1 °F 24.1 °F 51% 30.32 in 10.0 mi NNE 5.8 mph - N/A   Clear
6:54 PM 37.9 °F 33.5 °F 25.0 °F 60% 30.32 in 10.0 mi North 5.8 mph - N/A   Clear
7:54 PM 36.0 °F 30.3 °F 25.0 °F 64% 30.32 in 10.0 mi North 6.9 mph - N/A   Clear
8:54 PM 35.1 °F 30.1 °F 26.1 °F 70% 30.30 in 10.0 mi North 5.8 mph - N/A   Clear
9:54 PM 35.1 °F 29.3 °F 28.0 °F 76% 30.27 in 10.0 mi North 6.9 mph - N/A   Clear
10:54 PM 35.1 °F 28.6 °F 28.0 °F 76% 30.24 in 10.0 mi NNW 8.1 mph - N/A   Partly Cloudy
11:54 PM 36.0 °F 28.0 °F 28.9 °F 76% 30.21 in 10.0 mi NNW 11.5 mph - N/A   Clear